Meridian NAS, MS

9:27 PM CDT on August 22, 2017 (GMT -0500)
Meridian Naval Air Station

Weather History for KNMM - November, 2013

Change the Weather History Date:

Saturday, November 9, 2013

  Actual Average Record
Temperature  
Mean Temperature 52 °F -  
Max Temperature 63 °F 64 °F 82 °F (2005)
Min Temperature 41 °F 45 °F 33 °F (2012)
Degree Days  
Heating Degree Days 13    
Growing Degree Days 2 (Base 50)    
Moisture  
Dew Point 43 °F    
Average Humidity 74    
Maximum Humidity 93    
Minimum Humidity 48    
Precipitation  
Precipitation 0.00 in - - ()
Sea Level Pressure  
Sea Level Pressure 30.30 in    
Wind  
Wind Speed 2 mph (ENE)    
Max Wind Speed 6 mph    
Max Gust Speed -    
Visibility 10 miles    
Events Rain    
Averages and records for this station are not official NWS values.
T = Trace of Precipitation, MM = Missing Value Source: NWS Daily Summary

Daily Weather History Graph

Daily Weather History Graph

Search for Another Location

Airport or City:

Trip Planner

Search our weather history database for the weather conditions in past years. The results will help you decide how hot, cold, wet, or windy it might be!

Date:

Astronomy

Nov. 09, 2013 Rise Set
Actual Time 6:18 AM CST 4:56 PM CST
Civil Twilight 5:53 AM CST 5:22 PM CST
Nautical Twilight 5:23 AM CST 5:52 PM CST
Astronomical Twilight 4:54 AM CST 6:21 PM CST
Moon 11:58 AM CST (11/9) 11:22 PM CST (11/9)
Length of Visible Light 11h 29m
Length of Day
10h 38m
Waxing Crescent, 44% of the Moon is Illuminated
Nov 9
Waxing Crescent
Nov 9
First Quarter
Nov 17
Full
Nov 25
Last Quarter
Dec 2
New

Hourly Weather History & Observations

Time (CST) Temp. Windchill Dew Point Humidity Pressure Visibility Wind Dir Wind Speed Gust Speed Precip Events Conditions
12:56 AM 42.1 °F - 39.9 °F 92% 30.27 in 10.0 mi Calm Calm - N/A   Clear
1:56 AM 43.0 °F - 39.9 °F 89% 30.26 in 10.0 mi Calm Calm - N/A   Clear
2:56 AM 42.1 °F - 39.9 °F 92% 30.27 in 10.0 mi Calm Calm - N/A   Clear
3:56 AM 43.0 °F - 39.9 °F 89% 30.27 in 10.0 mi Calm Calm - N/A   Clear
4:56 AM 42.1 °F - 39.9 °F 92% 30.28 in 10.0 mi Calm Calm - N/A   Clear
5:56 AM 41.0 °F - 39.0 °F 93% 30.32 in 10.0 mi Calm Calm - N/A   Clear
6:56 AM 41.0 °F 39.0 °F 39.0 °F 93% 30.32 in 10.0 mi East 3.5 mph - N/A   Clear
7:56 AM 46.0 °F 44.8 °F 39.9 °F 79% 30.34 in 10.0 mi East 3.5 mph - N/A   Clear
8:56 AM 50.0 °F - 39.9 °F 68% 30.36 in 10.0 mi ESE 4.6 mph - N/A   Clear
9:56 AM 54.0 °F - 41.0 °F 62% 30.35 in 10.0 mi SE 4.6 mph - N/A   Clear
10:56 AM 57.9 °F - 41.0 °F 53% 30.32 in 10.0 mi ESE 5.8 mph - N/A   Clear
11:56 AM 60.1 °F - 43.0 °F 53% 30.31 in 10.0 mi East 3.5 mph - N/A   Clear
12:56 PM 62.1 °F - 42.1 °F 48% 30.27 in 10.0 mi Calm Calm - N/A   Clear
1:56 PM 63.0 °F - 43.0 °F 48% 30.26 in 10.0 mi Calm Calm - N/A   Clear
2:56 PM 63.0 °F - 46.0 °F 54% 30.26 in 10.0 mi NNE 4.6 mph - N/A   Clear
3:56 PM 61.0 °F - 46.9 °F 60% 30.26 in 10.0 mi NE 4.6 mph - N/A   Clear
4:56 PM 57.9 °F - 48.0 °F 70% 30.27 in 10.0 mi North 5.8 mph - N/A   Clear
5:56 PM 55.9 °F - 48.0 °F 75% 30.29 in 10.0 mi NE 3.5 mph - N/A   Clear
6:56 PM 55.9 °F - 46.9 °F 72% 30.30 in 10.0 mi Calm Calm - N/A   Scattered Clouds
7:56 PM 54.0 °F - 48.0 °F 80% 30.31 in 10.0 mi Calm Calm - N/A   Overcast
8:56 PM 54.0 °F - 46.9 °F 77% 30.30 in 10.0 mi Calm Calm - 0.00 in Rain Light Rain
9:56 PM 53.1 °F - 46.9 °F 80% 30.29 in 10.0 mi Calm Calm - 0.00 in   Partly Cloudy
10:56 PM 53.1 °F - 48.0 °F 83% 30.30 in 10.0 mi NNW 3.5 mph - N/A   Overcast
11:56 PM 53.1 °F - 48.0 °F 83% 30.30 in 10.0 mi NNW 3.5 mph - N/A   Overcast